Weather History for KONZ - March, 2014

Change the Weather History Date:

Sunday, March 23, 2014

  Actual Average (KDTW) Record (KDTW)
Temperature  
Mean Temperature 26 °F 40 °F  
Max Temperature 32 °F 49 °F 73 °F (1988)
Min Temperature 19 °F 31 °F 2 °F (1888)
Degree Days  
Heating Degree Days 40 25  
Month to date heating degree days 676  
Since 1 July heating degree days 5229  
Cooling Degree Days 0 0  
Month to date cooling degree days 0  
Year to date cooling degree days 0  
Moisture  
Dew Point 6 °F    
Average Humidity 46    
Maximum Humidity 64    
Minimum Humidity 37    
Precipitation  
Precipitation 0.00 in 0.08 in 0.91 in (1938)
Month to date precipitation 1.64  
Year to date precipitation 5.62  
Snow  
Snow 0.00 in 0.20 in 5.30 in (1956)
Month to date snowfall 5.7  
Since 1 July snowfall 39.6  
Snow Depth -    
Sea Level Pressure  
Sea Level Pressure 30.30 in    
Wind  
Wind Speed 11 mph (NNW)    
Max Wind Speed 16 mph    
Max Gust Speed 25 mph    
Visibility 10 miles    
Events      
T = Trace of Precipitation, MM = Missing Value Source: NWS Daily Summary

Daily Weather History Graph

Daily Weather History Graph

Search for Another Location

Airport or City:

Trip Planner

Search our weather history database for the weather conditions in past years. The results will help you decide how hot, cold, wet, or windy it might be!

Date:

Astronomy

Mar. 23, 2014 Rise Set
Actual Time 7:30 AM EDT 7:48 PM EDT
Civil Twilight 7:02 AM EDT 8:16 PM EDT
Nautical Twilight 6:30 AM EDT 8:49 PM EDT
Astronomical Twilight 5:56 AM EDT 9:22 PM EDT
Moon 2:09 AM EDT (3/23) 12:05 PM EDT (3/23)
Length of Visible Light 13h 13m
Length of Day
12h 17m
Waning Gibbous, 55% of the Moon is Illuminated
Mar 23
Waning Gibbous
Mar 23
Last Quarter
Mar 30
New
Apr 7
First Quarter
Apr 15
Full

Hourly Weather History & Observations

Time (EDT) Temp. Windchill Dew Point Humidity Pressure Visibility Wind Dir Wind Speed Gust Speed Precip Events Conditions
12:14 AM 32.0 °F 22.1 °F 21.2 °F 64% 30.19 in 10.0 mi NNW 13.8 mph - N/A   Overcast
12:34 AM 30.2 °F 21.3 °F 19.4 °F 64% 30.20 in 10.0 mi NNW 10.4 mph 18.4 mph N/A   Mostly Cloudy
12:54 AM 28.4 °F 18.0 °F 17.6 °F 64% 30.21 in 10.0 mi North 12.7 mph - N/A   Scattered Clouds
1:14 AM 28.4 °F 16.6 °F 15.8 °F 59% 30.21 in 10.0 mi NW 16.1 mph - N/A   Scattered Clouds
1:34 AM 28.4 °F 16.6 °F 15.8 °F 59% 30.22 in 10.0 mi North 16.1 mph 25.3 mph N/A   Scattered Clouds
1:54 AM 26.6 °F 16.2 °F 15.8 °F 64% 30.23 in 10.0 mi North 11.5 mph 18.4 mph N/A   Scattered Clouds
2:14 AM 24.8 °F 12.9 °F 14.0 °F 64% 30.24 in 10.0 mi North 13.8 mph 17.3 mph N/A   Scattered Clouds
2:34 AM 24.8 °F 12.9 °F 10.4 °F 54% 30.25 in 10.0 mi NNW 13.8 mph 21.9 mph N/A   Clear
2:55 AM 24.8 °F 12.4 °F 6.8 °F 46% 30.25 in 10.0 mi NNW 15.0 mph 21.9 mph N/A   Clear
3:14 AM 24.8 °F 14.6 °F 6.8 °F 46% 30.24 in 10.0 mi North 10.4 mph 17.3 mph N/A   Clear
3:34 AM 23.0 °F 11.7 °F 6.8 °F 50% 30.25 in 10.0 mi NNW 11.5 mph - N/A   Clear
3:54 AM 23.0 °F 11.7 °F 6.8 °F 50% 30.25 in 10.0 mi NNW 11.5 mph - N/A   Clear
4:14 AM 21.2 °F 9.5 °F 8.6 °F 58% 30.25 in 10.0 mi NNW 11.5 mph - N/A   Clear
4:34 AM 21.2 °F 9.5 °F 6.8 °F 54% 30.26 in 10.0 mi North 11.5 mph - N/A   Clear
4:54 AM 21.2 °F 8.3 °F 3.2 °F 46% 30.27 in 10.0 mi North 13.8 mph - N/A   Clear
5:14 AM 21.2 °F 9.5 °F 1.4 °F 42% 30.27 in 10.0 mi North 11.5 mph - N/A   Clear
5:34 AM 19.4 °F 6.0 °F 3.2 °F 49% 30.28 in 10.0 mi NNW 13.8 mph 19.6 mph N/A   Clear
5:54 AM 19.4 °F 7.2 °F 1.4 °F 46% 30.28 in 10.0 mi NNW 11.5 mph - N/A   Clear
6:14 AM 19.4 °F 6.6 °F 1.4 °F 46% 30.29 in 10.0 mi North 12.7 mph - N/A   Clear
6:34 AM 19.4 °F 7.2 °F 3.2 °F 49% 30.30 in 10.0 mi NNW 11.5 mph - N/A   Clear
6:54 AM 19.4 °F 5.5 °F 1.4 °F 46% 30.31 in 10.0 mi North 15.0 mph 18.4 mph N/A   Clear
7:14 AM 19.4 °F 7.9 °F -0.4 °F 42% 30.31 in 10.0 mi North 10.4 mph - N/A   Clear
7:34 AM 19.4 °F 7.2 °F 1.4 °F 46% 30.32 in 10.0 mi NNW 11.5 mph 16.1 mph N/A   Clear
7:54 AM 19.4 °F 7.2 °F 1.4 °F 46% 30.33 in 10.0 mi NNW 11.5 mph - N/A   Clear
8:14 AM 19.4 °F 7.9 °F 1.4 °F 46% 30.33 in 10.0 mi North 10.4 mph - N/A   Clear
8:35 AM 19.4 °F 7.9 °F 3.2 °F 49% 30.33 in 10.0 mi NNW 10.4 mph - N/A   Clear
8:54 AM 19.4 °F 7.2 °F 3.2 °F 49% 30.33 in 10.0 mi NNW 11.5 mph - N/A   Clear
9:14 AM 19.4 °F 9.5 °F 3.2 °F 49% 30.33 in 10.0 mi NNW 8.1 mph - N/A   Clear
9:34 AM 19.4 °F 8.6 °F 3.2 °F 49% 30.33 in 10.0 mi NNW 9.2 mph - N/A   Clear
9:54 AM 19.4 °F 8.6 °F 5.0 °F 54% 30.33 in 10.0 mi WNW 9.2 mph - N/A   Clear
10:14 AM 19.4 °F 7.2 °F 5.0 °F 54% 30.34 in 10.0 mi NNW 11.5 mph 16.1 mph N/A   Clear
10:34 AM 19.4 °F 9.5 °F 3.2 °F 49% 30.34 in 10.0 mi NNW 8.1 mph 17.3 mph N/A   Clear
10:54 AM 21.2 °F 10.9 °F 3.2 °F 46% 30.34 in 10.0 mi NW 9.2 mph 16.1 mph N/A   Clear
11:14 AM 21.2 °F 10.9 °F 3.2 °F 46% 30.34 in 10.0 mi NNW 9.2 mph - N/A   Clear
11:34 AM 23.0 °F 13.1 °F 3.2 °F 43% 30.34 in 10.0 mi NNW 9.2 mph 16.1 mph N/A   Clear
11:54 AM 23.0 °F 12.4 °F 3.2 °F 43% 30.34 in 10.0 mi NW 10.4 mph 16.1 mph N/A   Clear
12:14 PM 24.8 °F 16.1 °F 3.2 °F 40% 30.34 in 10.0 mi WNW 8.1 mph - N/A   Clear
12:34 PM 24.8 °F 16.9 °F 3.2 °F 40% 30.33 in 10.0 mi NNW 6.9 mph - N/A   Clear
12:54 PM 24.8 °F 14.6 °F 3.2 °F 40% 30.33 in 10.0 mi NW 10.4 mph 16.1 mph N/A   Clear
1:14 PM 26.6 °F 17.5 °F 3.2 °F 37% 30.33 in 10.0 mi NW 9.2 mph 17.3 mph N/A   Clear
1:34 PM 26.6 °F 16.2 °F 6.8 °F 43% 30.32 in 10.0 mi NW 11.5 mph - N/A   Clear
1:54 PM 26.6 °F 16.8 °F 6.8 °F 43% 30.31 in 10.0 mi NW 10.4 mph - N/A   Clear
2:14 PM 26.6 °F 21.2 °F 5.0 °F 40% 30.31 in 10.0 mi WNW 4.6 mph 19.6 mph N/A   Scattered Clouds
2:34 PM 26.6 °F 17.5 °F 5.0 °F 40% 30.30 in 10.0 mi NW 9.2 mph - N/A   Clear
2:54 PM 26.6 °F 16.2 °F 5.0 °F 40% 30.30 in 10.0 mi NNW 11.5 mph 16.1 mph N/A   Scattered Clouds
3:14 PM 28.4 °F 18.5 °F 5.0 °F 37% 30.29 in 10.0 mi NW 11.5 mph 17.3 mph N/A   Scattered Clouds
3:34 PM 28.4 °F 19.7 °F 6.8 °F 40% 30.29 in 10.0 mi NW 9.2 mph 16.1 mph N/A   Mostly Cloudy
3:54 PM 26.6 °F 16.2 °F 3.2 °F 37% 30.28 in 10.0 mi NW 11.5 mph 19.6 mph N/A   Scattered Clouds
4:14 PM 26.6 °F 15.2 °F 5.0 °F 40% 30.28 in 10.0 mi NNW 13.8 mph 21.9 mph N/A   Mostly Cloudy
4:34 PM 28.4 °F 17.5 °F 6.8 °F 40% 30.29 in 10.0 mi NW 13.8 mph - N/A   Mostly Cloudy
4:54 PM 28.4 °F 18.5 °F 6.8 °F 40% 30.28 in 10.0 mi WNW 11.5 mph 17.3 mph N/A   Mostly Cloudy
5:14 PM 28.4 °F 19.7 °F 5.0 °F 37% 30.28 in 10.0 mi NW 9.2 mph 19.6 mph N/A   Mostly Cloudy
5:34 PM 28.4 °F 19.7 °F 5.0 °F 37% 30.28 in 10.0 mi West 9.2 mph - N/A   Mostly Cloudy
5:54 PM 26.6 °F 18.2 °F 3.2 °F 37% 30.29 in 10.0 mi WNW 8.1 mph 17.3 mph N/A   Mostly Cloudy
6:14 PM 28.4 °F 18.5 °F 5.0 °F 37% 30.30 in 10.0 mi WNW 11.5 mph 18.4 mph N/A   Mostly Cloudy
6:34 PM 26.6 °F 19.1 °F 3.2 °F 37% 30.30 in 10.0 mi WNW 6.9 mph - N/A   Overcast
6:54 PM 26.6 °F 18.2 °F 5.0 °F 40% 30.30 in 10.0 mi NNW 8.1 mph 17.3 mph N/A   Overcast
7:14 PM 26.6 °F 18.2 °F 3.2 °F 37% 30.30 in 10.0 mi WNW 8.1 mph - N/A   Mostly Cloudy
7:34 PM 24.8 °F 16.1 °F 3.2 °F 40% 30.31 in 10.0 mi NW 8.1 mph - N/A   Scattered Clouds
7:54 PM 24.8 °F 15.3 °F 6.8 °F 46% 30.31 in 10.0 mi North 9.2 mph - N/A   Scattered Clouds
8:14 PM 24.8 °F 16.1 °F 5.0 °F 43% 30.31 in 10.0 mi NNW 8.1 mph - N/A   Overcast
8:34 PM 24.8 °F 17.9 °F 5.0 °F 43% 30.32 in 10.0 mi NNW 5.8 mph - N/A   Overcast
8:54 PM 24.8 °F 16.9 °F 5.0 °F 43% 30.32 in 10.0 mi NW 6.9 mph - N/A   Overcast
9:14 PM 24.8 °F 20.5 °F 5.0 °F 43% 30.33 in 10.0 mi NW 3.5 mph - N/A   Overcast
9:34 PM 24.8 °F 19.1 °F 5.0 °F 43% 30.33 in 10.0 mi WNW 4.6 mph - N/A   Overcast
9:54 PM 24.8 °F 20.5 °F 3.2 °F 40% 30.33 in 10.0 mi NNW 3.5 mph - N/A   Overcast
10:14 PM 24.8 °F 20.5 °F 3.2 °F 40% 30.33 in 10.0 mi North 3.5 mph - N/A   Overcast
10:34 PM 24.8 °F 20.5 °F 5.0 °F 43% 30.33 in 10.0 mi North 3.5 mph - N/A   Overcast
10:54 PM 24.8 °F 20.5 °F 6.8 °F 46% 30.33 in 10.0 mi NNW 3.5 mph - N/A   Overcast
11:13 PM 24.8 °F 17.9 °F 6.8 °F 46% 30.33 in 10.0 mi WNW 5.8 mph - N/A   Overcast
11:34 PM 24.8 °F 19.1 °F 6.8 °F 46% 30.33 in 10.0 mi NW 4.6 mph - N/A   Overcast
11:54 PM 24.8 °F 17.9 °F 5.0 °F 43% 30.33 in 10.0 mi West 5.8 mph - N/A   Overcast